• In Moldova, Republic
  • List of Countries
  • For 7 days
  • Water Temperature
  • Satellite Maps
  • Weather Map
  • Weather Widgets
  • user-avatar
    Login

    Hourly Weather Ganja

    Today, 28 March, Tuesday

    Time Temperature Precipitation Wind Pressure Humidity
    00:00 +10°C° 0 mm 2 mps 720 mmHg 60%
    01:00 +9°C° 0 mm 2 mps 720 mmHg 61%
    02:00 +9°C° 0 mm 2 mps 720 mmHg 63%
    03:00 +9°C° 0 mm 2 mps 720 mmHg 64%
    04:00 +9°C° 0 mm 2 mps 721 mmHg 69%
    05:00 +8°C° 0 mm 3 mps 721 mmHg 73%
    06:00 +7°C° 0 mm 3 mps 721 mmHg 78%
    07:00 +7°C° 0.2 mm 4 mps 722 mmHg 74%
    08:00 +8°C° 0.2 mm 5 mps 722 mmHg 70%
    09:00 +8°C° 0.2 mm 6 mps 723 mmHg 66%
    10:00 +9°C° 0.4 mm 5 mps 723 mmHg 64%
    11:00 +9°C° 0.4 mm 5 mps 723 mmHg 61%
    12:00 +9°C° 0.4 mm 5 mps 723 mmHg 59%
    13:00 +10°C° 0.3 mm 5 mps 723 mmHg 57%
    14:00 +11°C° 0.3 mm 4 mps 723 mmHg 56%
    15:00 +12°C° 0.3 mm 4 mps 723 mmHg 54%
    16:00 +11°C° 0.2 mm 3 mps 723 mmHg 56%
    17:00 +10°C° 0.2 mm 3 mps 724 mmHg 59%
    18:00 +10°C° 0.2 mm 2 mps 724 mmHg 61%
    19:00 +8°C° 0 mm 2 mps 725 mmHg 62%
    20:00 +7°C° 0 mm 2 mps 725 mmHg 64%
    21:00 +6°C° 0 mm 2 mps 726 mmHg 65%
    22:00 +6°C° 0 mm 2 mps 726 mmHg 66%
    23:00 +4°C° 0 mm 3 mps 726 mmHg 67%

    Tomorrow, 29 March, Wednesday

    Time Temperature Precipitation Wind Pressure Humidity
    00:00 +4°C° 0 mm 3 mps 726 mmHg 68%
    01:00 +4°C° 0 mm 3 mps 726 mmHg 68%
    02:00 +4°C° 0 mm 4 mps 725 mmHg 68%
    03:00 +4°C° 0 mm 4 mps 725 mmHg 68%
    04:00 +4°C° 0 mm 4 mps 725 mmHg 68%
    05:00 +3°C° 0 mm 4 mps 726 mmHg 69%
    06:00 +3°C° 0 mm 4 mps 726 mmHg 69%
    07:00 +5°C° 0 mm 4 mps 726 mmHg 62%
    08:00 +7°C° 0 mm 4 mps 725 mmHg 56%
    09:00 +10°C° 0 mm 5 mps 725 mmHg 49%
    10:00 +12°C° 0 mm 5 mps 725 mmHg 46%
    11:00 +13°C° 0 mm 5 mps 725 mmHg 42%
    12:00 +15°C° 0 mm 5 mps 725 mmHg 38%
    13:00 +15°C° 0 mm 5 mps 725 mmHg 38%
    14:00 +16°C° 0 mm 5 mps 725 mmHg 37%
    15:00 +16°C° 0 mm 5 mps 725 mmHg 37%
    16:00 +14°C° 0 mm 4 mps 725 mmHg 42%
    17:00 +13°C° 0 mm 3 mps 726 mmHg 47%
    18:00 +12°C° 0 mm 2 mps 726 mmHg 52%
    19:00 +10°C° 0 mm 2 mps 727 mmHg 55%
    20:00 +10°C° 0 mm 1 mps 728 mmHg 58%
    21:00 +9°C° 0 mm 1 mps 728 mmHg 61%
    22:00 +8°C° 0 mm 1 mps 729 mmHg 63%
    23:00 +7°C° 0 mm 1 mps 729 mmHg 66%

    Day after tomorrow, 30 March, Thursday

    Time Temperature Precipitation Wind Pressure Humidity
    00:00 +7°C° 0 mm 1 mps 730 mmHg 69%
    01:00 +6°C° 0 mm 2 mps 730 mmHg 74%
    02:00 +5°C° 0 mm 2 mps 730 mmHg 79%
    03:00 +5°C° 0 mm 2 mps 730 mmHg 84%
    04:00 +5°C° 0 mm 1 mps 730 mmHg 85%
    05:00 +5°C° 0 mm 1 mps 730 mmHg 86%
    06:00 +5°C° 0 mm 1 mps 731 mmHg 87%
    07:00 +7°C° 0 mm 1 mps 730 mmHg 80%
    08:00 +8°C° 0 mm 2 mps 730 mmHg 72%
    09:00 +10°C° 0 mm 2 mps 730 mmHg 64%
    10:00 +12°C° 0 mm 2 mps 730 mmHg 60%
    11:00 +13°C° 0 mm 2 mps 729 mmHg 57%
    12:00 +14°C° 0 mm 2 mps 728 mmHg 53%
    13:00 +14°C° 0 mm 2 mps 728 mmHg 52%
    14:00 +15°C° 0 mm 2 mps 727 mmHg 51%
    15:00 +15°C° 0 mm 2 mps 726 mmHg 51%
    16:00 +14°C° 0 mm 1 mps 726 mmHg 57%
    17:00 +13°C° 0 mm 1 mps 726 mmHg 63%
    18:00 +11°C° 0 mm 1 mps 726 mmHg 69%
    19:00 +10°C° 0 mm 1 mps 727 mmHg 72%
    20:00 +9°C° 0 mm 1 mps 727 mmHg 74%
    21:00 +7°C° 0 mm 0 mps 727 mmHg 77%
    22:00 +8°C° 0 mm 1 mps 727 mmHg 74%
    23:00 +7°C° 0 mm 2 mps 727 mmHg 72%

    31 March, Friday

    Time Temperature Precipitation Wind Pressure Humidity
    00:00 +7°C° 0 mm 2 mps 727 mmHg 69%
    01:00 +7°C° 0 mm 2 mps 726 mmHg 67%
    02:00 +7°C° 0 mm 3 mps 726 mmHg 64%
    03:00 +7°C° 0 mm 3 mps 726 mmHg 61%
    04:00 +7°C° 0 mm 3 mps 726 mmHg 60%
    05:00 +7°C° 0 mm 3 mps 726 mmHg 59%
    06:00 +7°C° 0 mm 3 mps 726 mmHg 58%
    07:00 +10°C° 0 mm 3 mps 726 mmHg 52%
    08:00 +12°C° 0 mm 3 mps 726 mmHg 47%
    09:00 +14°C° 0 mm 3 mps 726 mmHg 41%
    10:00 +16°C° 0 mm 3 mps 726 mmHg 39%
    11:00 +17°C° 0 mm 3 mps 726 mmHg 37%
    12:00 +19°C° 0 mm 3 mps 726 mmHg 35%
    13:00 +19°C° 0 mm 2 mps 726 mmHg 35%
    14:00 +19°C° 0 mm 2 mps 725 mmHg 35%
    15:00 +19°C° 0 mm 2 mps 725 mmHg 36%
    16:00 +18°C° 0 mm 2 mps 726 mmHg 40%
    17:00 +16°C° 0 mm 2 mps 726 mmHg 45%
    18:00 +15°C° 0 mm 2 mps 726 mmHg 50%
    19:00 +13°C° 0.1 mm 3 mps 727 mmHg 52%
    20:00 +13°C° 0.1 mm 4 mps 728 mmHg 54%
    21:00 +12°C° 0.1 mm 5 mps 728 mmHg 56%
    22:00 +10°C° 0.1 mm 5 mps 728 mmHg 62%
    23:00 +10°C° 0.1 mm 5 mps 728 mmHg 67%

    1 April, Saturday

    Time Temperature Precipitation Wind Pressure Humidity
    00:00 +9°C° 0.1 mm 6 mps 729 mmHg 72%
    01:00 +8°C° 0.4 mm 6 mps 729 mmHg 76%
    02:00 +8°C° 0.4 mm 6 mps 729 mmHg 79%
    03:00 +7°C° 0.4 mm 6 mps 729 mmHg 83%
    04:00 +7°C° 0.2 mm 5 mps 729 mmHg 84%
    05:00 +6°C° 0.2 mm 5 mps 729 mmHg 85%
    06:00 +6°C° 0.2 mm 5 mps 729 mmHg 86%
    07:00 +6°C° 0.1 mm 5 mps 728 mmHg 83%
    08:00 +6°C° 0.1 mm 5 mps 728 mmHg 80%
    09:00 +7°C° 0.1 mm 5 mps 728 mmHg 78%
    10:00 +7°C° 0.1 mm 5 mps 728 mmHg 75%
    11:00 +8°C° 0.1 mm 4 mps 728 mmHg 72%
    12:00 +8°C° 0.1 mm 4 mps 727 mmHg 69%
    13:00 +8°C° 0.2 mm 4 mps 727 mmHg 69%
    14:00 +9°C° 0.2 mm 3 mps 727 mmHg 69%
    15:00 +9°C° 0.2 mm 3 mps 726 mmHg 69%
    16:00 +8°C° 0.1 mm 2 mps 726 mmHg 71%
    17:00 +8°C° 0.1 mm 2 mps 726 mmHg 74%
    18:00 +7°C° 0.1 mm 2 mps 727 mmHg 76%
    19:00 +7°C° 0 mm 2 mps 727 mmHg 78%
    20:00 +6°C° 0 mm 2 mps 727 mmHg 81%
    21:00 +6°C° 0 mm 2 mps 727 mmHg 83%
    22:00 +6°C° 0 mm 2 mps 727 mmHg 85%
    23:00 +5°C° 0 mm 2 mps 727 mmHg 86%

    2 April, Sunday

    Time Temperature Precipitation Wind Pressure Humidity
    00:00 +6°C° 0 mm 1 mps 727 mmHg 87%
    01:00 +5°C° 0 mm 2 mps 727 mmHg 88%
    02:00 +4°C° 0 mm 2 mps 727 mmHg 89%
    03:00 +4°C° 0 mm 2 mps 728 mmHg 90%
    04:00 +4°C° 0 mm 2 mps 728 mmHg 91%
    05:00 +5°C° 0 mm 1 mps 728 mmHg 91%
    06:00 +4°C° 0 mm 1 mps 728 mmHg 92%
    07:00 +4°C° 0.2 mm 2 mps 729 mmHg 87%
    08:00 +5°C° 0.2 mm 2 mps 729 mmHg 82%
    09:00 +5°C° 0.2 mm 3 mps 730 mmHg 77%
    10:00 +7°C° 0.2 mm 3 mps 730 mmHg 74%
    11:00 +7°C° 0.2 mm 4 mps 730 mmHg 70%
    12:00 +8°C° 0.2 mm 4 mps 730 mmHg 67%
    13:00 +8°C° 0.1 mm 4 mps 730 mmHg 66%
    14:00 +10°C° 0.1 mm 4 mps 730 mmHg 64%
    15:00 +10°C° 0.1 mm 4 mps 730 mmHg 63%
    16:00 +8°C° 0 mm 4 mps 731 mmHg 67%
    17:00 +7°C° 0 mm 4 mps 731 mmHg 71%
    18:00 +7°C° 0 mm 3 mps 731 mmHg 75%
    19:00 +5°C° 0 mm 3 mps 732 mmHg 78%
    20:00 +4°C° 0 mm 3 mps 732 mmHg 81%
    21:00 +4°C° 0 mm 2 mps 733 mmHg 84%
    22:00 +4°C° 0 mm 2 mps 733 mmHg 84%
    23:00 +4°C° 0 mm 2 mps 733 mmHg 84%
    Show more